SL-14 DEB, 45299

Orbit data source: Space-Track

SL-14 DEB, 45299 is space debris in LEO originally from a launch on Thu, 15 Aug 1991 UTC launched from the Plesetsk Missile And Space Complex (PKMTR). Debris objects in space refer to the collection of defunct objects orbiting the Earth. Examples of debris include non-operational satellites, rocket bodies, and fragments generated from explosions, collisions, or faulty payload assembly.

Loading next visibility...
Identifier
45299, 1991-056AM
Orbit
LEO
Country
Flag of CISCIS
Related business
Manufacturer
Unknown
Mission
Spacecraft
Bus & Motor
Unknown
Mass
Unknown
Launch date (UTC)
1991-08-15 (34 years ago)
Launch vehicle
Unknown
Launch site
Plesetsk Missile And Space Complex (PKMTR)
Object type
Payload
Rocket body
Debris
Shape & HBR
Unknown shape, 0.4 m
Radar Cross Section
Medium (>0.1 m² and <1 m²)

Expand to show TLE details & history
Last TLE update: 1 day ago

TLE from 1 day ago
0 SL-14 DEB
1 45299U 91056AM  25312.41733744  .00002836  00000-0  76735-2 0  9995
2 45299  82.6358 330.2867 0093211 208.8057 150.7899 13.12492294273815
Epoch: 2025-11-08T10:00Z
TLE epoch observation values (Epoch: 2025-11-08T10:00:57.954Z)
Latitude
-0.00004°
Longitude
132.19797°
Altitude
1,278.267 km
Speed
7.187 km/s
True Right ascension
22h 01m 08s
True Declination
0° 00' 00"
Sunlit
Object was in daylight at epoch
Visualization orbit readout
Latitude
Unknown
Longitude
Unknown
Altitude
Unknown
Speed
Unknown
Apparent Right ascension
Unknown
Apparent Declination
Unknown
Sunlit
N/A
Visualization observer readout
Local Sidereal Time
11:06:58
Azimuth
Unknown
Elevation
Unknown
Doppler factor
Unknown
Orbital elements
Apogee altitude
1,281.518 km
Perigee altitude
1,140.044 km
Semi-major axis
7,588.918 km
Eccentricity
0.00932
Inclination
82.6358°
RAAN
330.2867°
Arg. of periapsis
208.8057°
True anomaly
151.3059°
Mean anomaly
150.7899°
Eccentric anomaly
151.04842°
Mean motion
3.28302 °/min
Orbital period
109.66 mins
BSTAR
0.0076735
Loading maneuver chart data...
Computing Atmospheric mass density...
Loading historical data...
Loading historical data...
Loading historical data...
Loading historical data...
Loading historical data...
Loading historical data...
Loading historical data...

Documentation

Showing up to 5 results
|